owner,sensor,date,latitude,longitude,vertical_datum,direction_of_sea_water_velocity,sea_water_speed,upward_sea_water_velocity,qcFlag 
TABS,ioos:station:wmo:42049:1,2013-10-01T00:00:00Z,28.3507,-96.0058,2.0,207.4145899,18.0917799,-99999.0,'11111222,11111222,99999999' 
TABS,ioos:station:wmo:42049:1,2013-10-01T00:30:00Z,28.3507,-96.0058,2.0,205.65643,15.79756943,-99999.0,'11111222,11111222,99999999' 
TABS,ioos:station:wmo:42049:1,2013-10-01T01:00:00Z,28.3507,-96.0058,2.0,208.7190849,14.27620398,-99999.0,'11111222,11111222,99999999' 
TABS,ioos:station:wmo:42049:1,2013-10-01T01:30:00Z,28.3507,-96.0058,2.0,206.6081679,11.81091444,-99999.0,'11111222,11111222,99999999' 
TABS,ioos:station:wmo:42049:1,2013-10-01T02:00:00Z,28.3507,-96.0058,2.0,200.910371,9.077885216,-99999.0,'11133222,11111222,99999999' 
TABS,ioos:station:wmo:42049:1,2013-10-01T02:30:00Z,28.3507,-96.0058,2.0,204.0031655,7.104378931,-99999.0,'11133222,11111222,99999999' 
TABS,ioos:station:wmo:42049:1,2013-10-01T03:00:00Z,28.3507,-96.0058,2.0,218.7738698,3.129728423,-99999.0,'11133222,11111222,99999999' 
TABS,ioos:station:wmo:42049:1,2013-10-01T03:30:00Z,28.3507,-96.0058,2.0,105.4135455,2.219842337,-99999.0,'11133222,11111222,99999999' 
TABS,ioos:station:wmo:42049:1,2013-10-01T04:00:00Z,28.3507,-96.0058,2.0,69.37503431,3.889280139,-99999.0,'11133222,11111222,99999999' 
TABS,ioos:station:wmo:42049:1,2013-10-01T04:30:00Z,28.3507,-96.0058,2.0,24.76957097,6.993382586,-99999.0,'11133222,11111222,99999999' 
TABS,ioos:station:wmo:42049:1,2013-10-01T05:00:00Z,28.3507,-96.0058,2.0,17.48986489,8.817630067,-99999.0,'11133222,11111222,99999999' 
TABS,ioos:station:wmo:42049:1,2013-10-01T05:30:00Z,28.3507,-96.0058,2.0,14.01406183,12.42995173,-99999.0,'11111222,11111222,99999999' 
TABS,ioos:station:wmo:42049:1,2013-10-01T06:00:00Z,28.3507,-96.0058,2.0,24.44410808,17.64124712,-99999.0,'11111222,11111222,99999999' 
TABS,ioos:station:wmo:42049:1,2013-10-01T06:30:00Z,28.3507,-96.0058,2.0,26.57909611,18.43861708,-99999.0,'11111222,11111222,99999999' 
TABS,ioos:station:wmo:42049:1,2013-10-01T07:00:00Z,28.3507,-96.0058,2.0,33.67811151,26.29278989,-99999.0,'11111222,11111222,99999999' 
TABS,ioos:station:wmo:42049:1,2013-10-01T07:30:00Z,28.3507,-96.0058,2.0,41.25415468,35.60819147,-99999.0,'11111222,11111222,99999999' 
TABS,ioos:station:wmo:42049:1,2013-10-01T08:00:00Z,28.3507,-96.0058,2.0,45.27790012,35.00219707,-99999.0,'11111222,11111222,99999999' 
TABS,ioos:station:wmo:42049:1,2013-10-01T08:30:00Z,28.3507,-96.0058,2.0,50.18624138,35.43676763,-99999.0,'11111222,11111222,99999999' 
TABS,ioos:station:wmo:42049:1,2013-10-01T09:00:00Z,28.3507,-96.0058,2.0,57.06336837,34.17248601,-99999.0,'11111222,11111222,99999999' 
TABS,ioos:station:wmo:42049:1,2013-10-01T09:30:00Z,28.3507,-96.0058,2.0,59.51644429,32.13138808,-99999.0,'11111222,11111222,99999999' 
TABS,ioos:station:wmo:42049:1,2013-10-01T10:00:00Z,28.3507,-96.0058,2.0,67.07567194,31.55198409,-99999.0,'11111222,11111222,99999999' 
TABS,ioos:station:wmo:42049:1,2013-10-01T10:30:00Z,28.3507,-96.0058,2.0,69.45212615,33.02081919,-99999.0,'11111222,11111222,99999999' 
TABS,ioos:station:wmo:42049:1,2013-10-01T11:00:00Z,28.3507,-96.0058,2.0,77.71907431,28.58410922,-99999.0,'11111222,11111222,99999999' 
TABS,ioos:station:wmo:42049:1,2013-10-01T11:30:00Z,28.3507,-96.0058,2.0,79.44700876,27.46453895,-99999.0,'11111222,11111222,99999999' 
TABS,ioos:station:wmo:42049:1,2013-10-01T12:00:00Z,28.3507,-96.0058,2.0,89.53772907,21.0706858,-99999.0,'11111222,11111222,99999999' 
TABS,ioos:station:wmo:42049:1,2013-10-01T12:30:00Z,28.3507,-96.0058,2.0,96.29516025,23.89407667,-99999.0,'11111222,11111222,99999999' 
TABS,ioos:station:wmo:42049:1,2013-10-01T13:00:00Z,28.3507,-96.0058,2.0,99.63901521,21.32100607,-99999.0,'11111222,11111222,99999999' 
TABS,ioos:station:wmo:42049:1,2013-10-01T13:30:00Z,28.3507,-96.0058,2.0,100.613352,22.42361478,-99999.0,'11111222,11111222,99999999' 
TABS,ioos:station:wmo:42049:1,2013-10-01T14:00:00Z,28.3507,-96.0058,2.0,102.734129,23.90805931,-99999.0,'11111222,11111222,99999999' 
TABS,ioos:station:wmo:42049:1,2013-10-01T14:30:00Z,28.3507,-96.0058,2.0,121.0399659,24.47458478,-99999.0,'11111222,11111222,99999999' 
TABS,ioos:station:wmo:42049:1,2013-10-01T15:00:00Z,28.3507,-96.0058,2.0,129.2145268,20.48314917,-99999.0,'11111222,11111222,99999999' 
TABS,ioos:station:wmo:42049:1,2013-10-01T15:30:00Z,28.3507,-96.0058,2.0,135.7599573,19.72294349,-99999.0,'11111222,11111222,99999999' 
TABS,ioos:station:wmo:42049:1,2013-10-01T16:00:00Z,28.3507,-96.0058,2.0,144.0197045,24.98701263,-99999.0,'11111222,11111222,99999999' 
TABS,ioos:station:wmo:42049:1,2013-10-01T16:30:00Z,28.3507,-96.0058,2.0,157.4583246,25.87694727,-99999.0,'11111222,11111222,99999999' 
TABS,ioos:station:wmo:42049:1,2013-10-01T17:00:00Z,28.3507,-96.0058,2.0,152.7112648,26.91546024,-99999.0,'11111222,11111222,99999999' 
TABS,ioos:station:wmo:42049:1,2013-10-01T17:30:00Z,28.3507,-96.0058,2.0,124.5857843,27.85212739,-99999.0,'11111222,11111222,99999999' 
TABS,ioos:station:wmo:42049:1,2013-10-01T18:00:00Z,28.3507,-96.0058,2.0,130.4621329,25.91892745,-99999.0,'11111222,11111222,99999999' 
TABS,ioos:station:wmo:42049:1,2013-10-01T18:30:00Z,28.3507,-96.0058,2.0,134.7429653,25.22982362,-99999.0,'11111222,11111222,99999999' 
TABS,ioos:station:wmo:42049:1,2013-10-01T19:00:00Z,28.3507,-96.0058,2.0,146.7230331,30.76447302,-99999.0,'11111222,11111222,99999999' 
TABS,ioos:station:wmo:42049:1,2013-10-01T19:30:00Z,28.3507,-96.0058,2.0,156.7809381,33.32951395,-99999.0,'11111222,11111222,99999999' 
TABS,ioos:station:wmo:42049:1,2013-10-01T20:00:00Z,28.3507,-96.0058,2.0,164.5559701,32.48289704,-99999.0,'11111222,11111222,99999999' 
TABS,ioos:station:wmo:42049:1,2013-10-01T20:30:00Z,28.3507,-96.0058,2.0,172.7131196,32.08915393,-99999.0,'11111222,11111222,99999999' 
TABS,ioos:station:wmo:42049:1,2013-10-01T21:00:00Z,28.3507,-96.0058,2.0,182.8890899,38.28867326,-99999.0,'11111222,11111222,99999999' 
TABS,ioos:station:wmo:42049:1,2013-10-01T21:30:00Z,28.3507,-96.0058,2.0,189.51571,42.16013876,-99999.0,'11111222,11111222,99999999' 
TABS,ioos:station:wmo:42049:1,2013-10-01T22:00:00Z,28.3507,-96.0058,2.0,201.405027,39.48348642,-99999.0,'11111222,11111222,99999999' 
TABS,ioos:station:wmo:42049:1,2013-10-01T22:30:00Z,28.3507,-96.0058,2.0,208.2883186,41.48441274,-99999.0,'11111222,11111222,99999999' 
TABS,ioos:station:wmo:42049:1,2013-10-01T23:00:00Z,28.3507,-96.0058,2.0,214.4242402,35.48431344,-99999.0,'11111222,11111222,99999999' 
TABS,ioos:station:wmo:42049:1,2013-10-01T23:30:00Z,28.3507,-96.0058,2.0,222.6027838,30.77192552,-99999.0,'11111222,11111222,99999999' 
TABS,ioos:station:wmo:42049:1,2013-10-02T00:00:00Z,28.3507,-96.0058,2.0,233.8123738,32.40029938,-99999.0,'11111222,11111222,99999999' 
TABS,ioos:station:wmo:42049:1,2013-10-02T00:30:00Z,28.3507,-96.0058,2.0,243.8645078,39.9328261,-99999.0,'11111222,11111222,99999999' 
TABS,ioos:station:wmo:42049:1,2013-10-02T01:00:00Z,28.3507,-96.0058,2.0,256.5509955,42.09427158,-99999.0,'11111222,11111222,99999999' 
TABS,ioos:station:wmo:42049:1,2013-10-02T01:30:00Z,28.3507,-96.0058,2.0,271.5525683,38.7642232,-99999.0,'11111222,11111222,99999999' 
TABS,ioos:station:wmo:42049:1,2013-10-02T02:00:00Z,28.3507,-96.0058,2.0,282.8657887,41.54289951,-99999.0,'11111222,11111222,99999999' 
TABS,ioos:station:wmo:42049:1,2013-10-02T02:30:00Z,28.3507,-96.0058,2.0,293.4773704,40.26296686,-99999.0,'11111222,11111222,99999999' 
TABS,ioos:station:wmo:42049:1,2013-10-02T03:00:00Z,28.3507,-96.0058,2.0,299.0987254,38.14434952,-99999.0,'11111222,11111222,99999999' 
TABS,ioos:station:wmo:42049:1,2013-10-02T03:30:00Z,28.3507,-96.0058,2.0,303.5854727,39.37268596,-99999.0,'11111222,11111222,99999999' 
TABS,ioos:station:wmo:42049:1,2013-10-02T04:00:00Z,28.3507,-96.0058,2.0,307.2153827,41.50075301,-99999.0,'11111222,11111222,99999999' 
TABS,ioos:station:wmo:42049:1,2013-10-02T04:30:00Z,28.3507,-96.0058,2.0,310.1391331,41.38734106,-99999.0,'11111222,11111222,99999999' 
TABS,ioos:station:wmo:42049:1,2013-10-02T05:00:00Z,28.3507,-96.0058,2.0,314.6581687,41.4442674,-99999.0,'11111222,11111222,99999999' 
TABS,ioos:station:wmo:42049:1,2013-10-02T05:30:00Z,28.3507,-96.0058,2.0,318.8613998,41.26849767,-99999.0,'11111222,11111222,99999999' 
TABS,ioos:station:wmo:42049:1,2013-10-02T06:00:00Z,28.3507,-96.0058,2.0,317.3124052,37.68411469,-99999.0,'11111222,11111222,99999999' 
TABS,ioos:station:wmo:42049:1,2013-10-02T06:30:00Z,28.3507,-96.0058,2.0,324.1601875,42.06479407,-99999.0,'11111222,11111222,99999999' 
TABS,ioos:station:wmo:42049:1,2013-10-02T07:00:00Z,28.3507,-96.0058,2.0,331.9491808,34.66176712,-99999.0,'11111222,11111222,99999999' 
TABS,ioos:station:wmo:42049:1,2013-10-02T07:30:00Z,28.3507,-96.0058,2.0,339.4916554,32.5105306,-99999.0,'11111222,11111222,99999999' 
TABS,ioos:station:wmo:42049:1,2013-10-02T08:00:00Z,28.3507,-96.0058,2.0,337.3252711,31.18001443,-99999.0,'11111222,11111222,99999999' 
TABS,ioos:station:wmo:42049:1,2013-10-02T08:30:00Z,28.3507,-96.0058,2.0,348.0668274,27.03424865,-99999.0,'11111222,11111222,99999999' 
TABS,ioos:station:wmo:42049:1,2013-10-02T09:00:00Z,28.3507,-96.0058,2.0,345.6106249,25.95423087,-99999.0,'11111222,11111222,99999999' 
TABS,ioos:station:wmo:42049:1,2013-10-02T09:30:00Z,28.3507,-96.0058,2.0,358.4324612,24.48916699,-99999.0,'11111222,11111222,99999999' 
TABS,ioos:station:wmo:42049:1,2013-10-02T10:00:00Z,28.3507,-96.0058,2.0,3.956648399,22.75422818,-99999.0,'11111222,11111222,99999999' 
TABS,ioos:station:wmo:42049:1,2013-10-02T10:30:00Z,28.3507,-96.0058,2.0,1.927132173,19.33093117,-99999.0,'11111222,11111222,99999999' 
TABS,ioos:station:wmo:42049:1,2013-10-02T11:00:00Z,28.3507,-96.0058,2.0,20.33216426,17.95893093,-99999.0,'11111222,11111222,99999999' 
TABS,ioos:station:wmo:42049:1,2013-10-02T11:30:00Z,28.3507,-96.0058,2.0,28.34979808,15.07841172,-99999.0,'11111222,11111222,99999999' 
TABS,ioos:station:wmo:42049:1,2013-10-02T12:00:00Z,28.3507,-96.0058,2.0,33.62887127,10.3645791,-99999.0,'11111222,11111222,99999999' 
TABS,ioos:station:wmo:42049:1,2013-10-02T12:30:00Z,28.3507,-96.0058,2.0,61.9937043,15.29059842,-99999.0,'11111222,11111222,99999999' 
TABS,ioos:station:wmo:42049:1,2013-10-02T13:00:00Z,28.3507,-96.0058,2.0,68.31733813,15.23819215,-99999.0,'11111222,11111222,99999999' 
TABS,ioos:station:wmo:42049:1,2013-10-02T13:30:00Z,28.3507,-96.0058,2.0,78.71715213,16.6110385,-99999.0,'11111222,11111222,99999999' 
TABS,ioos:station:wmo:42049:1,2013-10-02T14:00:00Z,28.3507,-96.0058,2.0,90.92749481,16.06210447,-99999.0,'11111222,11111222,99999999' 
TABS,ioos:station:wmo:42049:1,2013-10-02T14:30:00Z,28.3507,-96.0058,2.0,92.32022016,17.7845804,-99999.0,'11111222,11111222,99999999' 
TABS,ioos:station:wmo:42049:1,2013-10-02T15:00:00Z,28.3507,-96.0058,2.0,98.63136103,17.45772036,-99999.0,'11111222,11111222,99999999' 
TABS,ioos:station:wmo:42049:1,2013-10-02T15:30:00Z,28.3507,-96.0058,2.0,117.4065135,18.87892211,-99999.0,'11111222,11111222,99999999' 
TABS,ioos:station:wmo:42049:1,2013-10-02T16:00:00Z,28.3507,-96.0058,2.0,117.3013593,17.74690114,-99999.0,'11111222,11111222,99999999' 
TABS,ioos:station:wmo:42049:1,2013-10-02T16:30:00Z,28.3507,-96.0058,2.0,134.0212743,19.87259923,-99999.0,'11111222,11111222,99999999' 
TABS,ioos:station:wmo:42049:1,2013-10-02T17:00:00Z,28.3507,-96.0058,2.0,125.6924571,18.4939044,-99999.0,'11111222,11111222,99999999' 
TABS,ioos:station:wmo:42049:1,2013-10-02T17:30:00Z,28.3507,-96.0058,2.0,139.0167284,15.94908148,-99999.0,'11111222,11111222,99999999' 
TABS,ioos:station:wmo:42049:1,2013-10-02T18:00:00Z,28.3507,-96.0058,2.0,144.1820903,16.88284632,-99999.0,'11111222,11111222,99999999' 
TABS,ioos:station:wmo:42049:1,2013-10-02T18:30:00Z,28.3507,-96.0058,2.0,162.3608567,20.03179972,-99999.0,'11111222,11111222,99999999' 
TABS,ioos:station:wmo:42049:1,2013-10-02T19:00:00Z,28.3507,-96.0058,2.0,178.1778125,17.29874562,-99999.0,'11111222,11111222,99999999' 
TABS,ioos:station:wmo:42049:1,2013-10-02T19:30:00Z,28.3507,-96.0058,2.0,186.3208806,19.89092758,-99999.0,'11111222,11111222,99999999' 
TABS,ioos:station:wmo:42049:1,2013-10-02T20:00:00Z,28.3507,-96.0058,2.0,203.0984626,20.34071041,-99999.0,'11111222,11111222,99999999' 
TABS,ioos:station:wmo:42049:1,2013-10-02T20:30:00Z,28.3507,-96.0058,2.0,215.976174,25.65311872,-99999.0,'11111222,11111222,99999999' 
TABS,ioos:station:wmo:42049:1,2013-10-02T21:00:00Z,28.3507,-96.0058,2.0,219.7265146,26.08241745,-99999.0,'11111222,11111222,99999999' 
TABS,ioos:station:wmo:42049:1,2013-10-02T21:30:00Z,28.3507,-96.0058,2.0,227.9458144,28.75361021,-99999.0,'11111222,11111222,99999999' 
TABS,ioos:station:wmo:42049:1,2013-10-02T22:00:00Z,28.3507,-96.0058,2.0,230.7506801,36.9058112,-99999.0,'11111222,11111222,99999999' 
TABS,ioos:station:wmo:42049:1,2013-10-02T22:30:00Z,28.3507,-96.0058,2.0,237.9425394,37.56846018,-99999.0,'11111222,11111222,99999999' 
TABS,ioos:station:wmo:42049:1,2013-10-02T23:00:00Z,28.3507,-96.0058,2.0,242.5894789,29.10782713,-99999.0,'11111222,11111222,99999999' 
TABS,ioos:station:wmo:42049:1,2013-10-02T23:30:00Z,28.3507,-96.0058,2.0,240.932928,27.56120825,-99999.0,'11111222,11111222,99999999' 
TABS,ioos:station:wmo:42049:1,2013-10-03T00:00:00Z,28.3507,-96.0058,2.0,249.1482462,33.15117494,-99999.0,'11111222,11111222,99999999' 
TABS,ioos:station:wmo:42049:1,2013-10-03T00:30:00Z,28.3507,-96.0058,2.0,251.6450319,40.58471141,-99999.0,'11111222,11111222,99999999' 
TABS,ioos:station:wmo:42049:1,2013-10-03T01:00:00Z,28.3507,-96.0058,2.0,255.1687329,44.41982103,-99999.0,'11111222,11111222,99999999' 
TABS,ioos:station:wmo:42049:1,2013-10-03T01:30:00Z,28.3507,-96.0058,2.0,260.06814,45.97900608,-99999.0,'11111222,11111222,99999999' 
TABS,ioos:station:wmo:42049:1,2013-10-03T02:00:00Z,28.3507,-96.0058,2.0,259.5055295,48.20631079,-99999.0,'11111222,11111222,99999999' 
TABS,ioos:station:wmo:42049:1,2013-10-03T02:30:00Z,28.3507,-96.0058,2.0,265.1276924,57.57802532,-99999.0,'11111222,11111222,99999999' 
TABS,ioos:station:wmo:42049:1,2013-10-03T03:00:00Z,28.3507,-96.0058,2.0,268.8515441,55.40112093,-99999.0,'11111222,11111222,99999999' 
TABS,ioos:station:wmo:42049:1,2013-10-03T03:30:00Z,28.3507,-96.0058,2.0,271.9260419,54.46075468,-99999.0,'11111222,11111222,99999999' 
TABS,ioos:station:wmo:42049:1,2013-10-03T04:00:00Z,28.3507,-96.0058,2.0,272.7643445,54.33320624,-99999.0,'11111222,11111222,99999999' 
TABS,ioos:station:wmo:42049:1,2013-10-03T04:30:00Z,28.3507,-96.0058,2.0,276.110628,53.92635719,-99999.0,'11111222,11111222,99999999' 
TABS,ioos:station:wmo:42049:1,2013-10-03T05:00:00Z,28.3507,-96.0058,2.0,279.7771695,51.82262923,-99999.0,'11111222,11111222,99999999' 
TABS,ioos:station:wmo:42049:1,2013-10-03T05:30:00Z,28.3507,-96.0058,2.0,284.209782,48.15324288,-99999.0,'11111222,11111222,99999999' 
TABS,ioos:station:wmo:42049:1,2013-10-03T06:00:00Z,28.3507,-96.0058,2.0,288.194188,47.33655353,-99999.0,'11111222,11111222,99999999' 
TABS,ioos:station:wmo:42049:1,2013-10-03T06:30:00Z,28.3507,-96.0058,2.0,294.9323594,43.62551662,-99999.0,'11111222,11111222,99999999' 
TABS,ioos:station:wmo:42049:1,2013-10-03T07:00:00Z,28.3507,-96.0058,2.0,296.2455046,40.04860172,-99999.0,'11111222,11111222,99999999' 
TABS,ioos:station:wmo:42049:1,2013-10-03T07:30:00Z,28.3507,-96.0058,2.0,302.580519,35.08027508,-99999.0,'11111222,11111222,99999999' 
TABS,ioos:station:wmo:42049:1,2013-10-03T08:00:00Z,28.3507,-96.0058,2.0,306.0955155,27.95655558,-99999.0,'11111222,11111222,99999999' 
TABS,ioos:station:wmo:42049:1,2013-10-03T08:30:00Z,28.3507,-96.0058,2.0,308.2353556,22.75045714,-99999.0,'11111222,11111222,99999999' 
TABS,ioos:station:wmo:42049:1,2013-10-03T09:00:00Z,28.3507,-96.0058,2.0,314.3656978,15.96037907,-99999.0,'11111222,11111222,99999999' 
TABS,ioos:station:wmo:42049:1,2013-10-03T09:30:00Z,28.3507,-96.0058,2.0,340.2633551,11.13409179,-99999.0,'11111222,11111222,99999999' 
TABS,ioos:station:wmo:42049:1,2013-10-03T10:00:00Z,28.3507,-96.0058,2.0,339.8945695,8.785379901,-99999.0,'11133222,11111222,99999999' 
TABS,ioos:station:wmo:42049:1,2013-10-03T10:30:00Z,28.3507,-96.0058,2.0,15.34276769,2.872368361,-99999.0,'11133222,11111222,99999999' 
TABS,ioos:station:wmo:42049:1,2013-10-03T11:00:00Z,28.3507,-96.0058,2.0,151.6448941,2.147673159,-99999.0,'11133222,11111222,99999999' 
TABS,ioos:station:wmo:42049:1,2013-10-03T11:30:00Z,28.3507,-96.0058,2.0,167.1843988,9.106854561,-99999.0,'11133222,11111222,99999999' 
TABS,ioos:station:wmo:42049:1,2013-10-03T12:00:00Z,28.3507,-96.0058,2.0,152.786373,5.532386465,-99999.0,'11133222,11111222,99999999' 
TABS,ioos:station:wmo:42049:1,2013-10-03T12:30:00Z,28.3507,-96.0058,2.0,165.8862743,10.78556906,-99999.0,'11111222,11111222,99999999' 
TABS,ioos:station:wmo:42049:1,2013-10-03T13:00:00Z,28.3507,-96.0058,2.0,155.2710899,9.490273969,-99999.0,'11133222,11111222,99999999' 
TABS,ioos:station:wmo:42049:1,2013-10-03T13:30:00Z,28.3507,-96.0058,2.0,169.2834765,9.465072636,-99999.0,'11133222,11111222,99999999' 
TABS,ioos:station:wmo:42049:1,2013-10-03T14:00:00Z,28.3507,-96.0058,2.0,164.4412591,14.24186786,-99999.0,'11111222,11111222,99999999' 
TABS,ioos:station:wmo:42049:1,2013-10-03T14:30:00Z,28.3507,-96.0058,2.0,163.9723517,18.21815029,-99999.0,'11111222,11111222,99999999' 
TABS,ioos:station:wmo:42049:1,2013-10-03T15:00:00Z,28.3507,-96.0058,2.0,164.4014188,20.64017684,-99999.0,'11111222,11111222,99999999' 
TABS,ioos:station:wmo:42049:1,2013-10-03T15:30:00Z,28.3507,-96.0058,2.0,171.2152282,21.54270642,-99999.0,'11111222,11111222,99999999' 
TABS,ioos:station:wmo:42049:1,2013-10-03T16:00:00Z,28.3507,-96.0058,2.0,177.637204,19.40649633,-99999.0,'11111222,11111222,99999999' 
TABS,ioos:station:wmo:42049:1,2013-10-03T16:30:00Z,28.3507,-96.0058,2.0,187.9377675,16.87166263,-99999.0,'11111222,11111222,99999999' 
TABS,ioos:station:wmo:42049:1,2013-10-03T17:00:00Z,28.3507,-96.0058,2.0,194.1082633,15.38404693,-99999.0,'11111222,11111222,99999999' 
TABS,ioos:station:wmo:42049:1,2013-10-03T17:30:00Z,28.3507,-96.0058,2.0,194.6777109,25.3368605,-99999.0,'11111222,11111222,99999999' 
TABS,ioos:station:wmo:42049:1,2013-10-03T18:00:00Z,28.3507,-96.0058,2.0,204.0566937,24.01601549,-99999.0,'11111222,11111222,99999999' 
TABS,ioos:station:wmo:42049:1,2013-10-03T18:30:00Z,28.3507,-96.0058,2.0,205.5588627,27.00244619,-99999.0,'11111222,11111222,99999999' 
TABS,ioos:station:wmo:42049:1,2013-10-03T19:00:00Z,28.3507,-96.0058,2.0,208.438716,21.33455413,-99999.0,'11111222,11111222,99999999' 
TABS,ioos:station:wmo:42049:1,2013-10-03T19:30:00Z,28.3507,-96.0058,2.0,211.0866739,26.31994871,-99999.0,'11111222,11111222,99999999' 
TABS,ioos:station:wmo:42049:1,2013-10-03T20:00:00Z,28.3507,-96.0058,2.0,213.2289003,26.20488504,-99999.0,'11111222,11111222,99999999' 
TABS,ioos:station:wmo:42049:1,2013-10-03T20:30:00Z,28.3507,-96.0058,2.0,217.3627757,25.32693823,-99999.0,'11111222,11111222,99999999' 
TABS,ioos:station:wmo:42049:1,2013-10-03T21:00:00Z,28.3507,-96.0058,2.0,217.8450572,27.13793286,-99999.0,'11111222,11111222,99999999' 
TABS,ioos:station:wmo:42049:1,2013-10-03T21:30:00Z,28.3507,-96.0058,2.0,218.340658,24.69613937,-99999.0,'11111222,11111222,99999999' 
TABS,ioos:station:wmo:42049:1,2013-10-03T22:00:00Z,28.3507,-96.0058,2.0,220.4479388,28.42341464,-99999.0,'11111222,11111222,99999999' 
TABS,ioos:station:wmo:42049:1,2013-10-03T22:30:00Z,28.3507,-96.0058,2.0,222.4328179,35.05109699,-99999.0,'11111222,11111222,99999999' 
TABS,ioos:station:wmo:42049:1,2013-10-03T23:00:00Z,28.3507,-96.0058,2.0,228.0124648,37.53561109,-99999.0,'11111222,11111222,99999999' 
TABS,ioos:station:wmo:42049:1,2013-10-03T23:30:00Z,28.3507,-96.0058,2.0,231.3253878,37.09439311,-99999.0,'11111222,11111222,99999999' 
TABS,ioos:station:wmo:42049:1,2013-10-04T00:00:00Z,28.3507,-96.0058,2.0,231.5947864,27.02769876,-99999.0,'11111222,11111222,99999999' 
TABS,ioos:station:wmo:42049:1,2013-10-04T00:30:00Z,28.3507,-96.0058,2.0,229.8965014,30.56665667,-99999.0,'11111222,11111222,99999999' 
TABS,ioos:station:wmo:42049:1,2013-10-04T01:00:00Z,28.3507,-96.0058,2.0,237.5699822,34.9268278,-99999.0,'11111222,11111222,99999999' 
TABS,ioos:station:wmo:42049:1,2013-10-04T01:30:00Z,28.3507,-96.0058,2.0,240.5882834,32.60184197,-99999.0,'11111222,11111222,99999999' 
TABS,ioos:station:wmo:42049:1,2013-10-04T02:00:00Z,28.3507,-96.0058,2.0,244.1821868,32.90430519,-99999.0,'11111222,11111222,99999999' 
TABS,ioos:station:wmo:42049:1,2013-10-04T02:30:00Z,28.3507,-96.0058,2.0,244.7203575,27.7029132,-99999.0,'11111222,11111222,99999999' 
TABS,ioos:station:wmo:42049:1,2013-10-04T03:00:00Z,28.3507,-96.0058,2.0,256.4981598,27.28402096,-99999.0,'11111222,11111222,99999999' 
TABS,ioos:station:wmo:42049:1,2013-10-04T03:30:00Z,28.3507,-96.0058,2.0,260.82842,26.85327727,-99999.0,'11111222,11111222,99999999' 
TABS,ioos:station:wmo:42049:1,2013-10-04T04:00:00Z,28.3507,-96.0058,2.0,262.0524022,21.26422348,-99999.0,'11111222,11111222,99999999' 
TABS,ioos:station:wmo:42049:1,2013-10-04T04:30:00Z,28.3507,-96.0058,2.0,268.7638092,19.47452952,-99999.0,'11111222,11111222,99999999' 
TABS,ioos:station:wmo:42049:1,2013-10-04T05:00:00Z,28.3507,-96.0058,2.0,271.7327727,15.54710584,-99999.0,'11111222,11111222,99999999' 
TABS,ioos:station:wmo:42049:1,2013-10-04T05:30:00Z,28.3507,-96.0058,2.0,284.6188562,20.0490299,-99999.0,'11111222,11111222,99999999' 
TABS,ioos:station:wmo:42049:1,2013-10-04T06:00:00Z,28.3507,-96.0058,2.0,281.5072184,14.8382344,-99999.0,'11111222,11111222,99999999' 
TABS,ioos:station:wmo:42049:1,2013-10-04T06:30:00Z,28.3507,-96.0058,2.0,289.6424214,16.36209339,-99999.0,'11111222,11111222,99999999' 
TABS,ioos:station:wmo:42049:1,2013-10-04T07:00:00Z,28.3507,-96.0058,2.0,299.3647891,14.01003212,-99999.0,'11111222,11111222,99999999' 
TABS,ioos:station:wmo:42049:1,2013-10-04T07:30:00Z,28.3507,-96.0058,2.0,316.4168333,14.30206978,-99999.0,'11111222,11111222,99999999' 
TABS,ioos:station:wmo:42049:1,2013-10-04T08:00:00Z,28.3507,-96.0058,2.0,327.1377546,13.25039622,-99999.0,'11111222,11111222,99999999' 
TABS,ioos:station:wmo:42049:1,2013-10-04T08:30:00Z,28.3507,-96.0058,2.0,329.0490664,7.835770543,-99999.0,'11133222,11111222,99999999' 
TABS,ioos:station:wmo:42049:1,2013-10-04T09:00:00Z,28.3507,-96.0058,2.0,317.0010966,6.481049298,-99999.0,'11133222,11111222,99999999' 
TABS,ioos:station:wmo:42049:1,2013-10-04T09:30:00Z,28.3507,-96.0058,2.0,300.4226297,6.71446945,-99999.0,'11133222,11111222,99999999' 
TABS,ioos:station:wmo:42049:1,2013-10-04T10:00:00Z,28.3507,-96.0058,2.0,353.6522604,8.139907862,-99999.0,'11133222,11111222,99999999' 
TABS,ioos:station:wmo:42049:1,2013-10-04T10:30:00Z,28.3507,-96.0058,2.0,344.7083129,4.094984737,-99999.0,'11133222,11111222,99999999' 
TABS,ioos:station:wmo:42049:1,2013-10-04T11:00:00Z,28.3507,-96.0058,2.0,336.0786835,4.266485673,-99999.0,'11133222,11111222,99999999' 
TABS,ioos:station:wmo:42049:1,2013-10-04T11:30:00Z,28.3507,-96.0058,2.0,357.2363596,2.903377344,-99999.0,'11133222,11111222,99999999' 
TABS,ioos:station:wmo:42049:1,2013-10-04T12:00:00Z,28.3507,-96.0058,2.0,328.8575899,2.745705738,-99999.0,'11133222,11111222,99999999' 
TABS,ioos:station:wmo:42049:1,2013-10-04T12:30:00Z,28.3507,-96.0058,2.0,89.1449046,7.37082085,-99999.0,'11133222,11111222,99999999' 
TABS,ioos:station:wmo:42049:1,2013-10-04T13:00:00Z,28.3507,-96.0058,2.0,112.1882843,7.149433544,-99999.0,'11133222,11111222,99999999' 
TABS,ioos:station:wmo:42049:1,2013-10-04T13:30:00Z,28.3507,-96.0058,2.0,136.0355738,7.432906565,-99999.0,'11133222,11111222,99999999' 
TABS,ioos:station:wmo:42049:1,2013-10-04T14:00:00Z,28.3507,-96.0058,2.0,155.105694,8.742270872,-99999.0,'11133222,11111222,99999999' 
TABS,ioos:station:wmo:42049:1,2013-10-04T14:30:00Z,28.3507,-96.0058,2.0,166.2045686,11.53267098,-99999.0,'11111222,11111222,99999999' 
TABS,ioos:station:wmo:42049:1,2013-10-04T15:00:00Z,28.3507,-96.0058,2.0,183.3212575,13.4626149,-99999.0,'11111222,11111222,99999999' 
TABS,ioos:station:wmo:42049:1,2013-10-04T15:30:00Z,28.3507,-96.0058,2.0,191.6966383,20.61815947,-99999.0,'11111222,11111222,99999999' 
TABS,ioos:station:wmo:42049:1,2013-10-04T16:00:00Z,28.3507,-96.0058,2.0,201.0199374,21.38294881,-99999.0,'11111222,11111222,99999999' 